Year,Month,Day,Hour,Minute,Value (Times are PST for windspeed in km/hr)
2008,01,03,00,00,7.50
2008,01,03,00,01,3.20
2008,01,03,00,02,3.60
2008,01,03,00,03,6.40
2008,01,03,00,04,10.60
2008,01,03,00,05,7.90
2008,01,03,00,06,8.00
2008,01,03,00,07,8.40
2008,01,03,00,08,7.40
2008,01,03,00,09,3.70
2008,01,03,00,10,6.30
2008,01,03,00,11,6.40
2008,01,03,00,12,3.90
2008,01,03,00,13,7.30
2008,01,03,00,14,8.40
2008,01,03,00,15,6.50
2008,01,03,00,16,2.70
2008,01,03,00,17,8.00
2008,01,03,00,18,4.70
2008,01,03,00,19,4.80
2008,01,03,00,20,8.10
2008,01,03,00,21,8.30
2008,01,03,00,22,14.10
2008,01,03,00,23,8.50
2008,01,03,00,24,9.00
2008,01,03,00,25,6.70
2008,01,03,00,26,9.20
2008,01,03,00,27,7.80
2008,01,03,00,28,6.60
2008,01,03,00,29,7.00
2008,01,03,00,30,5.30
2008,01,03,00,31,5.70
2008,01,03,00,32,7.10
2008,01,03,00,33,9.70
2008,01,03,00,34,10.70
2008,01,03,00,35,10.40
2008,01,03,00,36,7.60
2008,01,03,00,37,7.40
2008,01,03,00,38,7.10
2008,01,03,00,39,10.00
2008,01,03,00,40,4.70
2008,01,03,00,41,7.00
2008,01,03,00,42,10.20
2008,01,03,00,43,6.40
2008,01,03,00,44,7.10
2008,01,03,00,45,5.70
2008,01,03,00,46,4.00
2008,01,03,00,47,6.60
2008,01,03,00,48,8.90
2008,01,03,00,49,6.50
2008,01,03,00,50,6.10
2008,01,03,00,51,11.20
2008,01,03,00,52,10.00
2008,01,03,00,53,8.10
2008,01,03,00,54,9.00
2008,01,03,00,55,6.50
2008,01,03,00,56,8.00
2008,01,03,00,57,3.80
2008,01,03,00,58,7.60
2008,01,03,00,59,9.00
2008,01,03,01,00,8.00
2008,01,03,01,01,8.70
2008,01,03,01,02,9.50
2008,01,03,01,03,7.30
2008,01,03,01,04,8.00
2008,01,03,01,05,8.60
2008,01,03,01,06,6.00
2008,01,03,01,07,9.90
2008,01,03,01,08,10.90
2008,01,03,01,09,9.40
2008,01,03,01,10,6.80
2008,01,03,01,11,8.60
2008,01,03,01,12,2.70
2008,01,03,01,13,5.80
2008,01,03,01,14,11.30
2008,01,03,01,15,6.90
2008,01,03,01,16,9.30
2008,01,03,01,17,10.90
2008,01,03,01,18,8.10
2008,01,03,01,19,11.60
2008,01,03,01,20,3.30
2008,01,03,01,21,9.80
2008,01,03,01,22,9.20
2008,01,03,01,23,11.70
2008,01,03,01,24,9.50
2008,01,03,01,25,8.30
2008,01,03,01,26,14.50
2008,01,03,01,27,7.90
2008,01,03,01,28,8.90
2008,01,03,01,29,9.20
2008,01,03,01,30,4.10
2008,01,03,01,31,7.20
2008,01,03,01,32,8.30
2008,01,03,01,33,10.90
2008,01,03,01,34,13.10
2008,01,03,01,35,8.80
2008,01,03,01,36,10.90
2008,01,03,01,37,10.30
2008,01,03,01,38,10.70
2008,01,03,01,39,13.40
2008,01,03,01,40,10.10
2008,01,03,01,41,12.80
2008,01,03,01,42,9.60
2008,01,03,01,43,8.60
2008,01,03,01,44,8.60
2008,01,03,01,45,10.10
2008,01,03,01,46,9.40
2008,01,03,01,47,9.30
2008,01,03,01,48,13.20
2008,01,03,01,49,12.00
2008,01,03,01,50,11.80
2008,01,03,01,51,13.10
2008,01,03,01,52,11.40
2008,01,03,01,53,10.90
2008,01,03,01,54,6.30
2008,01,03,01,55,11.10
2008,01,03,01,56,11.60
2008,01,03,01,57,11.80
2008,01,03,01,58,10.90
2008,01,03,01,59,14.00
2008,01,03,02,00,12.70
2008,01,03,02,01,18.30
2008,01,03,02,02,17.10
2008,01,03,02,03,12.10
2008,01,03,02,04,11.20
2008,01,03,02,05,15.50
2008,01,03,02,06,14.10
2008,01,03,02,07,13.90
2008,01,03,02,08,17.90
2008,01,03,02,09,9.20
2008,01,03,02,10,16.30
2008,01,03,02,11,13.20
2008,01,03,02,12,12.10
2008,01,03,02,13,18.40
2008,01,03,02,14,9.80
2008,01,03,02,15,16.50
2008,01,03,02,16,7.80
2008,01,03,02,17,6.50
2008,01,03,02,18,11.70
2008,01,03,02,19,13.80
2008,01,03,02,20,7.70
2008,01,03,02,21,11.30
2008,01,03,02,22,11.10
2008,01,03,02,23,17.90
2008,01,03,02,24,8.30
2008,01,03,02,25,10.30
2008,01,03,02,26,10.30
2008,01,03,02,27,10.70
2008,01,03,02,28,15.30
2008,01,03,02,29,9.30
2008,01,03,02,30,9.90
2008,01,03,02,31,9.10
2008,01,03,02,32,10.80
2008,01,03,02,33,11.10
2008,01,03,02,34,13.60
2008,01,03,02,35,11.40
2008,01,03,02,36,9.70
2008,01,03,02,37,18.20
2008,01,03,02,38,10.60
2008,01,03,02,39,7.80
2008,01,03,02,40,13.10
2008,01,03,02,41,11.00
2008,01,03,02,42,11.40
2008,01,03,02,43,10.90
2008,01,03,02,44,7.60
2008,01,03,02,45,19.70
2008,01,03,02,46,8.60
2008,01,03,02,47,10.60
2008,01,03,02,48,11.70
2008,01,03,02,49,12.30
2008,01,03,02,50,12.90
2008,01,03,02,51,10.00
2008,01,03,02,52,12.20
2008,01,03,02,53,10.10
2008,01,03,02,54,12.90
2008,01,03,02,55,8.30
2008,01,03,02,56,10.70
2008,01,03,02,57,9.20
2008,01,03,02,58,7.60
2008,01,03,02,59,16.00
2008,01,03,03,00,14.10
2008,01,03,03,01,15.00
2008,01,03,03,02,16.30
2008,01,03,03,03,17.30
2008,01,03,03,04,10.80
2008,01,03,03,05,10.40
2008,01,03,03,06,7.50
2008,01,03,03,07,17.30
2008,01,03,03,08,13.50
2008,01,03,03,09,15.20
2008,01,03,03,10,17.20
2008,01,03,03,11,14.00
2008,01,03,03,12,14.50
2008,01,03,03,13,16.90
2008,01,03,03,14,15.60
2008,01,03,03,15,14.30
2008,01,03,03,16,11.30
2008,01,03,03,17,10.60
2008,01,03,03,18,9.00
2008,01,03,03,19,7.60
2008,01,03,03,20,10.70
2008,01,03,03,21,14.50
2008,01,03,03,22,12.70
2008,01,03,03,23,16.70
2008,01,03,03,24,13.00
2008,01,03,03,25,12.80
2008,01,03,03,26,11.90
2008,01,03,03,27,14.50
2008,01,03,03,28,13.10
2008,01,03,03,29,12.50
2008,01,03,03,30,10.20
2008,01,03,03,31,10.20
2008,01,03,03,32,15.70
2008,01,03,03,33,13.30
2008,01,03,03,34,9.70
2008,01,03,03,35,10.90
2008,01,03,03,36,8.60
2008,01,03,03,37,9.30
2008,01,03,03,38,12.60
2008,01,03,03,39,13.30
2008,01,03,03,40,13.30
2008,01,03,03,41,12.40
2008,01,03,03,42,12.50
2008,01,03,03,43,8.90
2008,01,03,03,44,8.90
2008,01,03,03,45,12.00
2008,01,03,03,46,14.00
2008,01,03,03,47,14.60
2008,01,03,03,48,12.20
2008,01,03,03,49,14.80
2008,01,03,03,50,13.00
2008,01,03,03,51,10.00
2008,01,03,03,52,11.60
2008,01,03,03,53,6.90
2008,01,03,03,54,11.30
2008,01,03,03,55,13.50
2008,01,03,03,56,13.30
2008,01,03,03,57,9.20
2008,01,03,03,58,11.20
2008,01,03,03,59,7.30
2008,01,03,04,00,13.50
2008,01,03,04,01,9.00
2008,01,03,04,02,12.30
2008,01,03,04,03,10.60
2008,01,03,04,04,12.70
2008,01,03,04,05,9.10
2008,01,03,04,06,15.90
2008,01,03,04,07,14.30
2008,01,03,04,08,10.10
2008,01,03,04,09,12.00
2008,01,03,04,10,14.60
2008,01,03,04,11,11.30
2008,01,03,04,12,12.20
2008,01,03,04,13,10.80
2008,01,03,04,14,17.40
2008,01,03,04,15,7.80
2008,01,03,04,16,11.00
2008,01,03,04,17,12.60
2008,01,03,04,18,13.20
2008,01,03,04,19,16.30
2008,01,03,04,20,13.10
2008,01,03,04,21,15.80
2008,01,03,04,22,9.80
2008,01,03,04,23,16.00
2008,01,03,04,24,8.00
2008,01,03,04,25,17.20
2008,01,03,04,26,13.60
2008,01,03,04,27,8.90
2008,01,03,04,28,10.70
2008,01,03,04,29,8.90
2008,01,03,04,30,11.20
2008,01,03,04,31,7.90
2008,01,03,04,32,6.10
2008,01,03,04,33,5.70
2008,01,03,04,34,10.10
2008,01,03,04,35,10.50
2008,01,03,04,36,13.10
2008,01,03,04,37,14.70
2008,01,03,04,38,7.50
2008,01,03,04,39,10.60
2008,01,03,04,40,13.90
2008,01,03,04,41,10.50
2008,01,03,04,42,11.90
2008,01,03,04,43,12.10
2008,01,03,04,44,12.50
2008,01,03,04,45,8.30
2008,01,03,04,46,11.50
2008,01,03,04,47,13.20
2008,01,03,04,48,10.60
2008,01,03,04,49,15.50
2008,01,03,04,50,6.20
2008,01,03,04,51,10.00
2008,01,03,04,52,6.80
2008,01,03,04,53,6.80
2008,01,03,04,54,9.00
2008,01,03,04,55,5.30
2008,01,03,04,56,8.90
2008,01,03,04,57,11.40
2008,01,03,04,58,6.70
2008,01,03,04,59,8.60
2008,01,03,05,00,13.20
2008,01,03,05,01,14.20
2008,01,03,05,02,15.40
2008,01,03,05,03,9.70
2008,01,03,05,04,9.10
2008,01,03,05,05,8.40
2008,01,03,05,06,11.50
2008,01,03,05,07,8.00
2008,01,03,05,08,12.40
2008,01,03,05,09,8.60
2008,01,03,05,10,6.00
2008,01,03,05,11,8.00
2008,01,03,05,12,9.10
2008,01,03,05,13,8.80
2008,01,03,05,14,5.20
2008,01,03,05,15,8.60
2008,01,03,05,16,9.30
2008,01,03,05,17,9.70
2008,01,03,05,18,9.20
2008,01,03,05,19,7.90
2008,01,03,05,20,9.00
2008,01,03,05,21,13.00
2008,01,03,05,22,8.90
2008,01,03,05,23,13.90
2008,01,03,05,24,12.60
2008,01,03,05,25,12.90
2008,01,03,05,26,11.00
2008,01,03,05,27,9.90
2008,01,03,05,28,9.70
2008,01,03,05,29,4.70
2008,01,03,05,30,5.00
2008,01,03,05,31,4.40
2008,01,03,05,32,5.70
2008,01,03,05,33,5.70
2008,01,03,05,34,6.60
2008,01,03,05,35,8.80
2008,01,03,05,36,5.90
2008,01,03,05,37,5.00
2008,01,03,05,38,10.30
2008,01,03,05,39,5.90
2008,01,03,05,40,8.80
2008,01,03,05,41,5.80
2008,01,03,05,42,4.10
2008,01,03,05,43,5.60
2008,01,03,05,44,9.30
2008,01,03,05,45,8.60
2008,01,03,05,46,4.80
2008,01,03,05,47,8.50
2008,01,03,05,48,6.40
2008,01,03,05,49,12.40
2008,01,03,05,50,12.20
2008,01,03,05,51,4.80
2008,01,03,05,52,5.10
2008,01,03,05,53,8.10
2008,01,03,05,54,13.60
2008,01,03,05,55,11.70
2008,01,03,05,56,14.30
2008,01,03,05,57,9.90
2008,01,03,05,58,6.70
2008,01,03,05,59,6.50
2008,01,03,06,00,8.60
2008,01,03,06,01,4.50
2008,01,03,06,02,5.50
2008,01,03,06,03,6.20
2008,01,03,06,04,8.50
2008,01,03,06,05,8.10
2008,01,03,06,06,6.00
2008,01,03,06,07,9.60
2008,01,03,06,08,10.80
2008,01,03,06,09,11.80
2008,01,03,06,10,9.70
2008,01,03,06,11,11.50
2008,01,03,06,12,10.60
2008,01,03,06,13,9.90
2008,01,03,06,14,9.00
2008,01,03,06,15,14.90
2008,01,03,06,16,8.10
2008,01,03,06,17,6.00
2008,01,03,06,18,8.00
2008,01,03,06,19,8.30
2008,01,03,06,20,8.70
2008,01,03,06,21,6.90
2008,01,03,06,22,7.60
2008,01,03,06,23,9.00
2008,01,03,06,24,5.90
2008,01,03,06,25,9.90
2008,01,03,06,26,9.30
2008,01,03,06,27,6.30
2008,01,03,06,28,4.00
2008,01,03,06,29,10.70
2008,01,03,06,30,8.70
2008,01,03,06,31,10.20
2008,01,03,06,32,9.30
2008,01,03,06,33,10.60
2008,01,03,06,34,5.80
2008,01,03,06,35,6.90
2008,01,03,06,36,6.70
2008,01,03,06,37,8.30
2008,01,03,06,38,8.20
2008,01,03,06,39,10.50
2008,01,03,06,40,10.80
2008,01,03,06,41,9.00
2008,01,03,06,42,7.60
2008,01,03,06,43,11.20
2008,01,03,06,44,11.80
2008,01,03,06,45,9.70
2008,01,03,06,46,8.10
2008,01,03,06,47,3.40
2008,01,03,06,48,9.90
2008,01,03,06,49,12.20
2008,01,03,06,50,10.50
2008,01,03,06,51,8.70
2008,01,03,06,52,5.30
2008,01,03,06,53,6.60
2008,01,03,06,54,5.70
2008,01,03,06,55,5.00
2008,01,03,06,56,6.40
2008,01,03,06,57,5.30
2008,01,03,06,58,2.90
2008,01,03,06,59,3.00
2008,01,03,07,00,3.10
2008,01,03,07,01,3.70
2008,01,03,07,02,2.90
2008,01,03,07,03,5.90
2008,01,03,07,04,7.90
2008,01,03,07,05,6.50
2008,01,03,07,06,7.10
2008,01,03,07,07,6.80
2008,01,03,07,08,7.20
2008,01,03,07,09,4.00
2008,01,03,07,10,3.70
2008,01,03,07,11,4.60
2008,01,03,07,12,7.00
2008,01,03,07,13,3.40
2008,01,03,07,14,8.00
2008,01,03,07,15,6.20
2008,01,03,07,16,4.50
2008,01,03,07,17,4.20
2008,01,03,07,18,6.20
2008,01,03,07,19,11.70
2008,01,03,07,20,7.00
2008,01,03,07,21,4.70
2008,01,03,07,22,3.80
2008,01,03,07,23,9.50
2008,01,03,07,24,7.50
2008,01,03,07,25,6.80
2008,01,03,07,26,8.50
2008,01,03,07,27,8.30
2008,01,03,07,28,11.60
2008,01,03,07,29,7.60
2008,01,03,07,30,9.20
2008,01,03,07,31,10.40
2008,01,03,07,32,7.70
2008,01,03,07,33,7.70
2008,01,03,07,34,7.00
2008,01,03,07,35,9.20
2008,01,03,07,36,7.20
2008,01,03,07,37,5.40
2008,01,03,07,38,6.60
2008,01,03,07,39,12.90
2008,01,03,07,40,10.90
2008,01,03,07,41,9.80
2008,01,03,07,42,5.10
2008,01,03,07,43,8.80
2008,01,03,07,44,8.80
2008,01,03,07,45,10.20
2008,01,03,07,46,3.50
2008,01,03,07,47,6.20
2008,01,03,07,48,4.90
2008,01,03,07,49,5.20
2008,01,03,07,50,7.40
2008,01,03,07,51,7.10
2008,01,03,07,52,4.50
2008,01,03,07,53,8.20
2008,01,03,07,54,7.20
2008,01,03,07,55,6.50
2008,01,03,07,56,5.10
2008,01,03,07,57,5.20
2008,01,03,07,58,6.70
2008,01,03,07,59,8.40
2008,01,03,08,00,6.70
2008,01,03,08,01,4.10
2008,01,03,08,02,6.00
2008,01,03,08,03,5.00
2008,01,03,08,04,5.80
2008,01,03,08,05,9.70
2008,01,03,08,06,8.30
2008,01,03,08,07,7.50
2008,01,03,08,08,8.40
2008,01,03,08,09,6.80
2008,01,03,08,10,5.20
2008,01,03,08,11,10.70
2008,01,03,08,12,5.80
2008,01,03,08,13,8.10
2008,01,03,08,14,11.60
2008,01,03,08,15,11.10
2008,01,03,08,16,12.50
2008,01,03,08,17,13.80
2008,01,03,08,18,11.00
2008,01,03,08,19,10.40
2008,01,03,08,20,7.10
2008,01,03,08,21,10.10
2008,01,03,08,22,11.60
2008,01,03,08,23,11.30
2008,01,03,08,24,8.40
2008,01,03,08,25,10.80
2008,01,03,08,26,11.80
2008,01,03,08,27,11.60
2008,01,03,08,28,7.10
2008,01,03,08,29,9.70
2008,01,03,08,30,11.30
2008,01,03,08,31,6.00
2008,01,03,08,32,9.70
2008,01,03,08,33,7.50
2008,01,03,08,34,15.00
2008,01,03,08,35,16.60
2008,01,03,08,36,13.10
2008,01,03,08,37,10.70
2008,01,03,08,38,16.30
2008,01,03,08,39,15.50
2008,01,03,08,40,18.90
2008,01,03,08,41,15.20
2008,01,03,08,42,13.10
2008,01,03,08,43,8.20
2008,01,03,08,44,9.70
2008,01,03,08,45,12.20
2008,01,03,08,46,8.00
2008,01,03,08,47,9.90
2008,01,03,08,48,14.40
2008,01,03,08,49,12.80
2008,01,03,08,50,8.30
2008,01,03,08,51,8.20
2008,01,03,08,52,12.10
2008,01,03,08,53,11.90
2008,01,03,08,54,10.80
2008,01,03,08,55,9.30
2008,01,03,08,56,10.10
2008,01,03,08,57,15.50
2008,01,03,08,58,9.30
2008,01,03,08,59,10.00
2008,01,03,09,00,11.90
2008,01,03,09,01,9.20
2008,01,03,09,02,12.50
2008,01,03,09,03,13.10
2008,01,03,09,04,9.20
2008,01,03,09,05,11.30
2008,01,03,09,06,10.60
2008,01,03,09,07,8.30
2008,01,03,09,08,9.40
2008,01,03,09,09,10.20
2008,01,03,09,10,10.60
2008,01,03,09,11,8.50
2008,01,03,09,12,11.40
2008,01,03,09,13,16.50
2008,01,03,09,14,11.30
2008,01,03,09,15,14.90
2008,01,03,09,16,11.50
2008,01,03,09,17,13.80
2008,01,03,09,18,10.30
2008,01,03,09,19,15.60
2008,01,03,09,20,13.10
2008,01,03,09,21,18.30
2008,01,03,09,22,11.50
2008,01,03,09,23,7.20
2008,01,03,09,24,9.00
2008,01,03,09,25,14.10
2008,01,03,09,26,13.30
2008,01,03,09,27,13.60
2008,01,03,09,28,11.30
2008,01,03,09,29,11.10
2008,01,03,09,30,9.70
2008,01,03,09,31,9.80
2008,01,03,09,32,11.30
2008,01,03,09,33,11.20
2008,01,03,09,34,13.10
2008,01,03,09,35,14.90
2008,01,03,09,36,12.20
2008,01,03,09,37,9.20
2008,01,03,09,38,10.70
2008,01,03,09,39,16.20
2008,01,03,09,40,12.60
2008,01,03,09,41,13.80
2008,01,03,09,42,12.60
2008,01,03,09,43,12.60
2008,01,03,09,44,14.10
2008,01,03,09,45,9.30
2008,01,03,09,46,10.00
2008,01,03,09,47,7.60
2008,01,03,09,48,10.80
2008,01,03,09,49,13.60
2008,01,03,09,50,17.30
2008,01,03,09,51,11.80
2008,01,03,09,52,13.00
2008,01,03,09,53,9.80
2008,01,03,09,54,15.40
2008,01,03,09,55,10.40
2008,01,03,09,56,17.20
2008,01,03,09,57,11.50
2008,01,03,09,58,15.90
2008,01,03,09,59,13.70
2008,01,03,10,00,17.90
2008,01,03,10,01,11.20
2008,01,03,10,02,11.30
2008,01,03,10,03,15.30
2008,01,03,10,04,6.70
2008,01,03,10,05,14.70
2008,01,03,10,06,10.10
2008,01,03,10,07,9.00
2008,01,03,10,08,10.50
2008,01,03,10,09,13.80
2008,01,03,10,10,13.70
2008,01,03,10,11,13.20
2008,01,03,10,12,19.70
2008,01,03,10,13,14.10
2008,01,03,10,14,11.30
2008,01,03,10,15,15.00
2008,01,03,10,16,10.50
2008,01,03,10,17,12.20
2008,01,03,10,18,11.30
2008,01,03,10,19,18.10
2008,01,03,10,20,19.00
2008,01,03,10,21,10.80
2008,01,03,10,22,8.20
2008,01,03,10,23,12.50
2008,01,03,10,24,15.50
2008,01,03,10,25,10.20
2008,01,03,10,26,7.00
2008,01,03,10,27,11.70
2008,01,03,10,28,12.50
2008,01,03,10,29,14.50
2008,01,03,10,30,13.70
2008,01,03,10,31,14.50
2008,01,03,10,32,16.40
2008,01,03,10,33,10.10
2008,01,03,10,34,6.80
2008,01,03,10,35,12.50
2008,01,03,10,36,16.10
2008,01,03,10,37,11.50
2008,01,03,10,38,8.70
2008,01,03,10,39,9.10
2008,01,03,10,40,13.70
2008,01,03,10,41,10.90
2008,01,03,10,42,12.30
2008,01,03,10,43,11.30
2008,01,03,10,44,14.90
2008,01,03,10,45,10.60
2008,01,03,10,46,7.70
2008,01,03,10,47,8.70
2008,01,03,10,49,13.70
2008,01,03,10,50,12.50
2008,01,03,10,51,12.30
2008,01,03,10,52,8.60
2008,01,03,10,53,11.30
2008,01,03,10,54,10.30
2008,01,03,10,55,6.40
2008,01,03,10,56,13.50
2008,01,03,10,57,8.10
2008,01,03,10,58,9.70
2008,01,03,10,59,12.30
2008,01,03,11,00,11.60
2008,01,03,11,01,11.30
2008,01,03,11,02,10.50
2008,01,03,11,03,12.00
2008,01,03,11,04,12.20
2008,01,03,11,05,7.10
2008,01,03,11,06,13.70
2008,01,03,11,07,11.50
2008,01,03,11,08,11.50
2008,01,03,11,09,14.30
2008,01,03,11,10,15.30
2008,01,03,11,11,12.60
2008,01,03,11,12,12.70
2008,01,03,11,13,12.80
2008,01,03,11,14,11.00
2008,01,03,11,15,15.00
2008,01,03,11,16,11.70
2008,01,03,11,17,10.20
2008,01,03,11,18,12.30
2008,01,03,11,19,6.50
2008,01,03,11,20,11.50
2008,01,03,11,21,14.70
2008,01,03,11,22,11.40
2008,01,03,11,23,8.40
2008,01,03,11,24,10.40
2008,01,03,11,25,16.70
2008,01,03,11,26,9.50
2008,01,03,11,27,9.70
2008,01,03,11,28,19.30
2008,01,03,11,29,9.80
2008,01,03,11,30,10.70
2008,01,03,11,31,11.20
2008,01,03,11,32,17.40
2008,01,03,11,33,10.80
2008,01,03,11,34,10.80
2008,01,03,11,35,9.00
2008,01,03,11,36,12.10
2008,01,03,11,37,8.00
2008,01,03,11,38,14.00
2008,01,03,11,39,16.30
2008,01,03,11,40,12.50
2008,01,03,11,41,10.60
2008,01,03,11,42,8.10
2008,01,03,11,43,13.60
2008,01,03,11,44,13.70
2008,01,03,11,45,15.50
2008,01,03,11,46,16.00
2008,01,03,11,47,13.20
2008,01,03,11,48,14.70
2008,01,03,11,49,13.40
2008,01,03,11,50,8.90
2008,01,03,11,51,9.70
2008,01,03,11,52,10.90
2008,01,03,11,53,11.90
2008,01,03,11,54,7.60
2008,01,03,11,55,11.50
2008,01,03,11,56,17.50
2008,01,03,11,57,12.40
2008,01,03,11,58,15.90
2008,01,03,11,59,16.20
2008,01,03,12,00,18.20
2008,01,03,12,01,13.20
2008,01,03,12,02,12.90
2008,01,03,12,03,11.20
2008,01,03,12,04,18.00
2008,01,03,12,05,12.90
2008,01,03,12,06,16.50
2008,01,03,12,07,16.90
2008,01,03,12,08,13.20
2008,01,03,12,09,14.20
2008,01,03,12,10,12.70
2008,01,03,12,11,10.20
2008,01,03,12,12,14.00
2008,01,03,12,13,15.70
2008,01,03,12,14,14.20
2008,01,03,12,15,12.10
2008,01,03,12,16,18.20
2008,01,03,12,17,12.20
2008,01,03,12,18,11.50
2008,01,03,12,19,13.80
2008,01,03,12,20,16.40
2008,01,03,12,21,11.30
2008,01,03,12,22,14.80
2008,01,03,12,23,10.30
2008,01,03,12,24,9.60
2008,01,03,12,25,16.10
2008,01,03,12,26,26.90
2008,01,03,12,27,12.90
2008,01,03,12,28,21.60
2008,01,03,12,29,16.60
2008,01,03,12,30,10.60
2008,01,03,12,31,14.80
2008,01,03,12,32,14.30
2008,01,03,12,33,12.30
2008,01,03,12,34,18.80
2008,01,03,12,35,13.70
2008,01,03,12,36,12.50
2008,01,03,12,37,28.90
2008,01,03,12,38,19.10
2008,01,03,12,39,15.50
2008,01,03,12,40,15.90
2008,01,03,12,41,9.80
2008,01,03,12,42,10.50
2008,01,03,12,43,12.30
2008,01,03,12,44,17.40
2008,01,03,12,45,15.40
2008,01,03,12,46,17.40
2008,01,03,12,47,15.60
2008,01,03,12,48,18.90
2008,01,03,12,49,19.10
2008,01,03,12,50,8.90
2008,01,03,12,51,10.60
2008,01,03,12,52,23.40
2008,01,03,12,53,16.70
2008,01,03,12,54,18.10
2008,01,03,12,55,12.30
2008,01,03,12,56,21.00
2008,01,03,12,57,16.40
2008,01,03,12,58,17.00
2008,01,03,12,59,16.70
2008,01,03,13,00,12.30
2008,01,03,13,01,18.70
2008,01,03,13,02,21.30
2008,01,03,13,03,22.50
2008,01,03,13,04,16.40
2008,01,03,13,05,16.60
2008,01,03,13,06,22.30
2008,01,03,13,07,18.90
2008,01,03,13,08,21.30
2008,01,03,13,09,17.30
2008,01,03,13,10,17.70
2008,01,03,13,11,16.70
2008,01,03,13,12,12.60
2008,01,03,13,13,18.00
2008,01,03,13,14,13.50
2008,01,03,13,15,28.70
2008,01,03,13,16,17.90
2008,01,03,13,17,20.50
2008,01,03,13,18,25.80
2008,01,03,13,19,21.80
2008,01,03,13,20,14.70
2008,01,03,13,21,17.50
2008,01,03,13,22,22.10
2008,01,03,13,23,31.50
2008,01,03,13,24,19.60
2008,01,03,13,25,22.40
2008,01,03,13,26,17.40
2008,01,03,13,27,15.40
2008,01,03,13,28,22.10
2008,01,03,13,29,15.10
2008,01,03,13,30,16.80
2008,01,03,13,31,20.40
2008,01,03,13,32,22.10
2008,01,03,13,33,22.40
2008,01,03,13,34,13.80
2008,01,03,13,35,16.00
2008,01,03,13,36,25.80
2008,01,03,13,37,17.70
2008,01,03,13,38,17.10
2008,01,03,13,39,13.90
2008,01,03,13,40,26.80
2008,01,03,13,41,21.40
2008,01,03,13,42,13.90
2008,01,03,13,43,17.00
2008,01,03,13,44,26.80
2008,01,03,13,45,13.60
2008,01,03,13,46,15.60
2008,01,03,13,47,15.80
2008,01,03,13,48,19.90
2008,01,03,13,49,22.40
2008,01,03,13,50,11.60
2008,01,03,13,51,19.60
2008,01,03,13,52,12.40
2008,01,03,13,53,23.40
2008,01,03,13,54,19.80
2008,01,03,13,55,15.00
2008,01,03,13,56,20.60
2008,01,03,13,57,16.80
2008,01,03,13,58,26.10
2008,01,03,13,59,19.00
2008,01,03,14,00,9.70
2008,01,03,14,01,22.20
2008,01,03,14,02,17.70
2008,01,03,14,03,22.00
2008,01,03,14,04,17.50
2008,01,03,14,05,16.90
2008,01,03,14,06,18.80
2008,01,03,14,07,15.00
2008,01,03,14,08,16.70
2008,01,03,14,09,17.80
2008,01,03,14,10,13.50
2008,01,03,14,11,27.00
2008,01,03,14,12,20.60
2008,01,03,14,13,20.80
2008,01,03,14,14,21.70
2008,01,03,14,15,18.40
2008,01,03,14,16,27.10
2008,01,03,14,17,22.80
2008,01,03,14,18,13.30
2008,01,03,14,19,13.40
2008,01,03,14,20,12.90
2008,01,03,14,21,13.90
2008,01,03,14,22,18.00
2008,01,03,14,23,13.90
2008,01,03,14,24,19.70
2008,01,03,14,25,11.80
2008,01,03,14,26,12.60
2008,01,03,14,27,21.20
2008,01,03,14,28,18.80
2008,01,03,14,29,15.40
2008,01,03,14,30,22.70
2008,01,03,14,31,11.70
2008,01,03,14,32,18.10
2008,01,03,14,33,13.30
2008,01,03,14,34,20.90
2008,01,03,14,35,23.10
2008,01,03,14,36,11.30
2008,01,03,14,37,15.30
2008,01,03,14,38,22.30
2008,01,03,14,39,18.00
2008,01,03,14,40,19.30
2008,01,03,14,41,14.00
2008,01,03,14,42,18.90
2008,01,03,14,43,12.90
2008,01,03,14,44,13.30
2008,01,03,14,45,16.60
2008,01,03,14,46,11.30
2008,01,03,14,47,15.20
2008,01,03,14,48,10.80
2008,01,03,14,49,11.70
2008,01,03,14,50,13.80
2008,01,03,14,51,10.10
2008,01,03,14,52,10.80
2008,01,03,14,53,10.60
2008,01,03,14,54,13.10
2008,01,03,14,55,9.10
2008,01,03,14,56,18.00
2008,01,03,14,57,21.50
2008,01,03,14,58,16.00
2008,01,03,14,59,20.10
2008,01,03,15,00,18.20
2008,01,03,15,01,9.90
2008,01,03,15,02,12.00
2008,01,03,15,03,12.50
2008,01,03,15,04,8.90
2008,01,03,15,05,6.20
2008,01,03,15,06,7.60
2008,01,03,15,07,9.50
2008,01,03,15,08,14.20
2008,01,03,15,09,16.00
2008,01,03,15,10,18.60
2008,01,03,15,11,13.80
2008,01,03,15,12,11.00
2008,01,03,15,13,13.50
2008,01,03,15,14,10.90
2008,01,03,15,15,7.90
2008,01,03,15,16,10.40
2008,01,03,15,17,21.10
2008,01,03,15,18,12.40
2008,01,03,15,19,10.20
2008,01,03,15,20,8.10
2008,01,03,15,21,13.60
2008,01,03,15,22,9.00
2008,01,03,15,23,9.70
2008,01,03,15,24,9.90
2008,01,03,15,25,16.00
2008,01,03,15,26,11.20
2008,01,03,15,27,7.90
2008,01,03,15,28,7.80
2008,01,03,15,29,7.40
2008,01,03,15,30,15.30
2008,01,03,15,31,12.40
2008,01,03,15,32,12.50
2008,01,03,15,33,8.00
2008,01,03,15,34,8.10
2008,01,03,15,35,11.90
2008,01,03,15,36,12.20
2008,01,03,15,37,13.20
2008,01,03,15,38,8.00
2008,01,03,15,39,8.90
2008,01,03,15,40,8.80
2008,01,03,15,41,12.00
2008,01,03,15,42,9.00
2008,01,03,15,43,7.90
2008,01,03,15,44,18.00
2008,01,03,15,45,14.80
2008,01,03,15,46,18.60
2008,01,03,15,47,16.70
2008,01,03,15,48,14.10
2008,01,03,15,49,14.10
2008,01,03,15,50,18.50
2008,01,03,15,51,23.30
2008,01,03,15,52,18.60
2008,01,03,15,53,13.60
2008,01,03,15,54,13.90
2008,01,03,15,55,16.20
2008,01,03,15,56,11.30
2008,01,03,15,57,8.00
2008,01,03,15,58,8.70
2008,01,03,15,59,11.40
2008,01,03,16,00,11.40
2008,01,03,16,01,11.40
2008,01,03,16,02,13.10
2008,01,03,16,03,15.50
2008,01,03,16,04,7.60
2008,01,03,16,05,10.10
2008,01,03,16,06,10.30
2008,01,03,16,07,11.90
2008,01,03,16,08,13.60
2008,01,03,16,09,12.10
2008,01,03,16,10,8.60
2008,01,03,16,11,13.10
2008,01,03,16,12,10.60
2008,01,03,16,13,9.50
2008,01,03,16,14,12.20
2008,01,03,16,15,21.60
2008,01,03,16,16,18.40
2008,01,03,16,17,14.60
2008,01,03,16,18,12.70
2008,01,03,16,19,17.20
2008,01,03,16,20,12.60
2008,01,03,16,21,7.00
2008,01,03,16,22,12.90
2008,01,03,16,23,10.00
2008,01,03,16,24,17.50
2008,01,03,16,25,27.10
2008,01,03,16,26,26.80
2008,01,03,16,27,24.10
2008,01,03,16,28,14.50
2008,01,03,16,29,31.80
2008,01,03,16,30,33.20
2008,01,03,16,31,15.40
2008,01,03,16,32,19.10
2008,01,03,16,33,23.20
2008,01,03,16,34,25.00
2008,01,03,16,35,20.00
2008,01,03,16,36,13.40
2008,01,03,16,37,11.70
2008,01,03,16,38,17.90
2008,01,03,16,39,24.90
2008,01,03,16,40,16.30
2008,01,03,16,41,11.70
2008,01,03,16,42,16.20
2008,01,03,16,43,17.70
2008,01,03,16,44,18.80
2008,01,03,16,45,20.00
2008,01,03,16,46,21.90
2008,01,03,16,47,20.50
2008,01,03,16,48,18.80
2008,01,03,16,49,23.30
2008,01,03,16,50,20.60
2008,01,03,16,51,18.90
2008,01,03,16,52,17.40
2008,01,03,16,53,19.50
2008,01,03,16,54,16.00
2008,01,03,16,55,26.10
2008,01,03,16,56,12.40
2008,01,03,16,57,21.40
2008,01,03,16,58,35.50
2008,01,03,16,59,29.10
2008,01,03,17,00,25.50
2008,01,03,17,01,18.10
2008,01,03,17,02,23.10
2008,01,03,17,03,29.50
2008,01,03,17,04,20.90
2008,01,03,17,05,19.20
2008,01,03,17,06,22.60
2008,01,03,17,07,18.00
2008,01,03,17,08,26.30
2008,01,03,17,09,28.60
2008,01,03,17,10,17.70
2008,01,03,17,11,32.40
2008,01,03,17,12,16.20
2008,01,03,17,13,22.90
2008,01,03,17,14,27.00
2008,01,03,17,15,23.50
2008,01,03,17,16,40.70
2008,01,03,17,17,36.40
2008,01,03,17,18,28.20
2008,01,03,17,19,32.40
2008,01,03,17,20,24.40
2008,01,03,17,21,29.10
2008,01,03,17,22,29.30
2008,01,03,17,23,17.30
2008,01,03,17,24,22.40
2008,01,03,17,25,17.50
2008,01,03,17,26,16.90
2008,01,03,17,27,18.80
2008,01,03,17,28,26.90
2008,01,03,17,29,20.20
2008,01,03,17,30,19.00
2008,01,03,17,31,12.60
2008,01,03,17,32,19.10
2008,01,03,17,33,15.80
2008,01,03,17,34,17.60
2008,01,03,17,35,31.20
2008,01,03,17,36,16.00